EW9985 Weather Reports


time (UTC)temp
C
wind
direction
speed
KPH
gust
KPH
rain 1hr
cm
rain 24hr
cm
rain mn
cm
humidity
%
barometer
mb
20260507150007 14 40 0.0 1.6 0.00 0.00 0.00 90 1015.7
20260507144502 13 39 0.0 1.6 0.00 0.00 0.00 90 1015.6
20260507143119 12 39 0.0 3.2 0.00 0.00 0.00 90 1015.5
20260507141626 12 41 0.0 3.2 0.00 0.00 0.00 91 1015.3
20260507140112 11 41 0.0 3.2 0.00 0.00 0.00 91 1015.2
20260507134555 11 41 0.0 0.0 0.00 0.00 0.00 91 1015.1
20260507133057 10 41 0.0 1.6 0.00 0.00 0.00 91 1015.1
20260507131613 10 41 0.0 0.0 0.00 0.00 0.00 90 1014.8
20260507130047 10 41 0.0 3.2 0.00 0.00 0.00 90 1014.8
20260507124553 10 41 0.0 1.6 0.00 0.00 0.00 90 1014.7
20260507123046 11 41 0.0 1.6 0.00 0.00 0.00 89 1014.7
20260507121544 11 41 0.0 1.6 0.00 0.00 0.00 90 1014.6
20260507120043 11 40 0.0 3.2 0.00 0.00 0.00 89 1014.7
20260507114540 11 40 0.0 1.6 0.00 0.00 0.00 89 1014.8
20260507113102 11 40 0.0 1.6 0.00 0.00 0.00 89 1014.7
20260507111538 11 41 0.0 1.6 0.00 0.00 0.00 89 1015.0
20260507110039 11 41 0.0 1.6 0.00 0.00 0.00 89 1015.0
20260507104536 11 41 0.0 1.6 0.00 0.00 0.00 88 1015.0
20260507103033 12 41 0.0 1.6 0.00 0.00 0.00 88 1015.1
20260507101532 12 41 0.0 3.2 0.00 0.00 0.00 89 1015.1
20260507100042 12 64 0.0 4.8 0.00 0.00 0.00 88 1015.0
20260507094529 12 355 1.6 6.4 0.00 0.00 0.00 89 1015.1
20260507093031 12 32 0.0 6.4 0.00 0.00 0.00 88 1015.1
20260507091529 12 40 0.0 4.8 0.00 0.00 0.00 88 1015.3
20260507090122 12 18 0.0 1.6 0.00 0.00 0.00 87 1015.5
20260507084541 12 17 0.0 3.2 0.00 0.00 0.00 87 1015.8
20260507083024 12 17 0.0 1.6 0.00 0.00 0.00 87 1015.8
20260507081516 12 17 0.0 1.6 0.00 0.00 0.00 86 1016.0
20260507080016 12 17 0.0 3.2 0.00 0.00 0.00 86 1016.1
20260507074514 12 17 0.0 3.2 0.00 0.00 0.00 86 1016.0
20260507073012 13 15 0.0 3.2 0.00 0.00 0.00 86 1015.9
20260507071516 13 17 0.0 1.6 0.00 0.00 0.00 85 1016.0
20260507070016 13 15 0.0 3.2 0.00 0.00 0.00 85 1016.1
20260507064507 13 15 0.0 1.6 0.00 0.00 0.00 84 1016.2
20260507063007 13 14 0.0 1.6 0.00 0.00 0.00 84 1016.4
20260507061507 13 14 0.0 1.6 0.00 0.00 0.00 84 1016.3
20260507060006 14 13 0.0 1.6 0.00 0.00 0.00 83 1016.4
20260507054509 14 14 0.0 1.6 0.00 0.00 0.00 83 1016.4
20260507053006 14 13 0.0 1.6 0.00 0.00 0.00 82 1016.5
20260507051505 15 13 0.0 1.6 0.00 0.00 0.00 81 1016.1
20260507050013 15 13 0.0 3.2 0.00 0.00 0.00 82 1016.1
20260507044503 15 298 0.0 1.6 0.00 0.00 0.00 82 1016.0
20260507043003 15 293 0.0 1.6 0.00 0.00 0.00 81 1016.1
20260507041503 15 292 0.0 1.6 0.00 0.00 0.00 80 1016.1
20260507040002 16 291 0.0 1.6 0.00 0.00 0.00 80 1016.0
20260507034502 16 291 0.0 3.2 0.00 0.00 0.00 80 1015.9
20260507033001 16 198 0.0 3.2 0.00 0.00 0.00 80 1015.8
20260507031501 16 201 0.0 3.2 0.00 0.00 0.00 79 1015.7
20260507024559 17 348 0.0 3.2 0.00 0.00 0.00 80 1015.6
20260507023059 17 266 0.0 4.8 0.00 0.00 0.00 79 1015.4
20260507021611 17 84 0.0 8.0 0.00 0.00 0.00 78 1015.4
20260507020058 18 360 1.6 4.8 0.00 0.00 0.00 77 1015.2
20260507014559 18 238 3.2 9.7 0.00 0.00 0.00 75 1015.1
20260507013057 19 216 0.0 6.4 0.00 0.00 0.00 75 1015.0
20260507011559 20 246 3.2 14.5 0.00 0.00 0.00 73 1015.0
20260507010056 20 40 1.6 16.1 0.00 0.00 0.00 72 1015.1
20260507004556 21 67 3.2 9.7 0.00 0.00 0.00 71 1014.9
20260507003055 21 227 3.2 8.0 0.00 0.00 0.00 71 1014.9
20260507001604 21 360 1.6 11.3 0.00 0.00 0.00 72 1014.8
20260507000055 21 37 3.2 6.4 0.00 0.00 0.00 70 1014.8
20260506234616 21 238 1.6 9.7 0.00 0.00 0.00 71 1014.8
20260506233052 22 111 1.6 9.7 0.00 0.00 0.00 68 1014.8
20260506231555 22 271 1.6 11.3 0.00 0.00 0.00 65 1014.8
20260506230052 22 319 3.2 9.7 0.00 0.00 0.00 62 1014.8
20260506224549 22 72 4.8 11.3 0.00 0.00 0.00 61 1015.0
20260506223056 22 230 0.0 8.0 0.00 0.00 0.00 60 1015.3
20260506221543 22 285 1.6 9.7 0.00 0.00 0.00 66 1015.4
20260506220041 21 61 3.2 9.7 0.00 0.00 0.00 69 1015.7
20260506214542 21 229 1.6 6.4 0.00 0.00 0.00 69 1015.8
20260506213037 22 95 1.6 8.0 0.00 0.00 0.00 68 1016.0
20260506211535 21 323 1.6 8.0 0.00 0.00 0.00 69 1016.3
20260506210038 21 212 3.2 11.3 0.00 0.00 0.00 69 1016.3
20260506204546 21 35 1.6 9.7 0.00 0.00 0.00 69 1016.4
20260506203031 20 315 1.6 11.3 0.00 0.00 0.00 71 1016.5
20260506201534 20 109 1.6 8.0 0.00 0.00 0.00 71 1016.8
20260506200030 20 64 1.6 9.7 0.00 0.00 0.00 71 1016.9
20260506194527 20 212 3.2 8.0 0.00 0.00 0.00 70 1017.0
20260506193025 20 168 1.6 8.0 0.00 0.00 0.00 71 1017.2
20260506191527 20 40 1.6 8.0 0.00 0.00 0.00 71 1017.4
20260506190023 20 12 1.6 6.4 0.00 0.00 0.00 70 1017.4
20260506184520 20 223 1.6 6.4 0.00 0.00 0.00 70 1017.3
20260506183021 20 196 1.6 6.4 0.00 0.00 0.00 73 1017.6
20260506181520 20 220 0.0 4.8 0.00 0.00 0.00 72 1017.8
20260506180015 20 218 0.0 6.4 0.00 0.00 0.00 72 1017.9
20260506174507 20 222 1.6 6.4 0.00 0.00 0.00 72 1017.7
20260506173004 20 219 0.0 3.2 0.00 0.00 0.00 72 1017.7
20260506171601 19 207 0.0 4.8 0.00 0.00 0.00 73 1017.7
20260506170056 19 199 0.0 6.4 0.00 0.00 0.00 74 1017.6
20260506164556 18 208 0.0 4.8 0.00 0.00 0.00 75 1017.7
20260506163051 18 211 0.0 4.8 0.00 0.00 0.00 78 1017.9
20260506161550 17 208 0.0 3.2 0.00 0.00 0.00 80 1017.6
20260506160045 16 141 0.0 4.8 0.00 0.00 0.00 85 1017.7
20260506154534 15 185 0.0 4.8 0.00 0.00 0.00 87 1017.6
20260506153029 14 177 0.0 3.2 0.00 0.00 0.00 88 1017.6
20260506151533 13 13 0.0 3.2 0.00 0.00 0.00 87 1017.5